Renton, WA

12:16 PM PST on February 08, 2016 (GMT -0800)
Renton Municipal

Weather History for KRNT - December, 2015

Change the Weather History Date:

Wednesday, December 9, 2015

  Actual Average Record
Temperature  
Mean Temperature 50 °F -  
Max Temperature 55 °F 46 °F 63 °F (2014)
Min Temperature 45 °F 37 °F 19 °F (2013)
Degree Days  
Heating Degree Days 15    
Moisture  
Dew Point 46 °F    
Average Humidity 82    
Maximum Humidity 93    
Minimum Humidity 71    
Precipitation  
Precipitation 0.56 in - - ()
Sea Level Pressure  
Sea Level Pressure 29.64 in    
Wind  
Wind Speed 10 mph (SSE)    
Max Wind Speed 22 mph    
Max Gust Speed 37 mph    
Visibility 8 miles    
Events Rain , Thunderstorm    
Averages and records for this station are not official NWS values.
T = Trace of Precipitation, MM = Missing Value Source: NWS Daily Summary

Daily Weather History Graph

Daily Weather History Graph

Search for Another Location

Airport or City:

Trip Planner

Search our weather history database for the weather conditions in past years. The results will help you decide how hot, cold, wet, or windy it might be!

Date:

Astronomy

Dec. 09, 2015 Rise Set
Actual Time 7:44 AM PST 4:17 PM PST
Civil Twilight 7:08 AM PST 4:53 PM PST
Nautical Twilight 6:29 AM PST 5:32 PM PST
Astronomical Twilight 5:52 AM PST 6:09 PM PST
Moon 5:42 AM PST (12/9) 3:39 PM PST (12/9)
Length of Visible Light 9h 44m
Length of Day
8h 33m
Waning Crescent, 3% of the Moon is Illuminated
Dec 9
Waning Crescent
Dec 11
New
Dec 18
First Quarter
Dec 25
Full
Jan 1
Last Quarter

Hourly Weather History & Observations

Time (PST) Temp. Windchill Dew Point Humidity Pressure Visibility Wind Dir Wind Speed Gust Speed Precip Events Conditions
12:12 AM 55.9 °F - 52.0 °F 87% 29.47 in 7.0 mi SSE 9.2 mph 18.4 mph 0.01 in Rain Light Rain
12:26 AM 55.0 °F - 52.0 °F 89% 29.47 in 5.0 mi South 8.1 mph - 0.05 in Rain Rain
12:53 AM 55.0 °F - 53.1 °F 93% 29.48 in 4.0 mi SSE 8.1 mph - 0.13 in Rain Rain
1:33 AM 55.0 °F - 52.0 °F 89% 29.46 in 2.5 mi South 10.4 mph 17.3 mph 0.12 in Rain Rain
1:40 AM 55.0 °F - 52.0 °F 89% 29.46 in 3.0 mi South 9.2 mph 19.6 mph 0.14 in Rain Rain
1:53 AM 55.0 °F - 52.0 °F 89% 29.46 in 9.0 mi SSE 15.0 mph 19.6 mph 0.15 in Rain Light Rain
2:22 AM 55.0 °F - 51.1 °F 86% 29.45 in 8.0 mi South 11.5 mph - 0.02 in Rain Light Rain
2:53 AM 54.0 °F - 52.0 °F 93% 29.48 in 7.0 mi SSE 11.5 mph 18.4 mph 0.05 in Rain Light Rain
3:03 AM 55.0 °F - 51.1 °F 86% 29.52 in 2.5 mi SW 21.9 mph 33.4 mph 0.10 in Rain Heavy Rain
3:10 AM 53.1 °F - 48.9 °F 86% 29.51 in 3.0 mi SSW 15.0 mph 36.8 mph 0.11 in Rain Light Rain
3:53 AM 52.0 °F - 45.0 °F 77% 29.55 in 10.0 mi South 15.0 mph 24.2 mph 0.11 in   Overcast
4:53 AM 50.0 °F - 45.0 °F 83% 29.61 in 6.0 mi SSW 8.1 mph 18.4 mph 0.04 in Rain Light Rain
5:53 AM 51.1 °F - 45.0 °F 80% 29.61 in 10.0 mi South 13.8 mph 23.0 mph 0.05 in   Partly Cloudy
6:24 AM 51.1 °F - 46.0 °F 83% 29.61 in 10.0 mi SSE 8.1 mph - N/A Thunderstorm Mostly Cloudy
6:53 AM 51.1 °F - 44.1 °F 77% 29.65 in 7.0 mi South 13.8 mph 29.9 mph 0.01 in Rain , Thunderstorm Light Rain
7:00 AM 51.1 °F - 44.1 °F 77% 29.63 in 10.0 mi South 15.0 mph 24.2 mph 0.00 in Rain Light Rain
7:53 AM 50.0 °F - 46.9 °F 89% 29.67 in 6.0 mi South 16.1 mph 27.6 mph 0.01 in Rain Light Rain
8:53 AM 50.0 °F - 48.0 °F 93% 29.71 in 10.0 mi SSE 10.4 mph 20.7 mph 0.01 in   Mostly Cloudy
9:53 AM 52.0 °F - 48.9 °F 89% 29.75 in 10.0 mi South 10.4 mph 24.2 mph 0.00 in Rain Light Rain
10:53 AM 52.0 °F - 46.9 °F 83% 29.80 in 10.0 mi South 9.2 mph 25.3 mph 0.00 in   Clear
11:53 AM 51.1 °F - 44.1 °F 77% 29.83 in 10.0 mi South 11.5 mph - N/A   Overcast
12:53 PM 53.1 °F - 44.1 °F 71% 29.86 in 10.0 mi South 9.2 mph - 0.00 in   Scattered Clouds
1:53 PM 53.1 °F - 44.1 °F 71% 29.86 in 10.0 mi South 6.9 mph - N/A   Partly Cloudy
2:53 PM 53.1 °F - 44.1 °F 71% 29.85 in 10.0 mi South 9.2 mph - N/A   Clear
3:53 PM 51.1 °F - 44.1 °F 77% 29.86 in 9.0 mi SSE 6.9 mph - 0.00 in Rain Light Rain
4:53 PM 50.0 °F - 43.0 °F 77% 29.86 in 10.0 mi SSE 3.5 mph - 0.00 in   Clear
5:53 PM 48.9 °F - 43.0 °F 80% 29.86 in 10.0 mi ESE 4.6 mph - 0.00 in   Overcast
6:53 PM 48.0 °F - 42.1 °F 80% 29.81 in 10.0 mi Variable 3.5 mph - N/A   Clear
7:53 PM 46.0 °F 44.8 °F 41.0 °F 83% 29.78 in 10.0 mi SSE 3.5 mph - N/A   Clear
8:53 PM 45.0 °F 42.6 °F 41.0 °F 86% 29.72 in 10.0 mi SSE 4.6 mph - N/A   Clear
9:53 PM 46.0 °F 41.9 °F 39.0 °F 76% 29.63 in 10.0 mi ESE 8.1 mph - N/A   Clear
10:53 PM 46.9 °F - 37.9 °F 71% 29.51 in 10.0 mi ESE 3.5 mph - N/A   Clear
11:53 PM 45.0 °F - 37.9 °F 76% 29.47 in 10.0 mi Calm Calm - N/A   Clear